星链-2102 (STARLINK-2102 )

导读 | 星芒AI

STARLINK-2102 是 SpaceX Starlink 项目中的一颗低轨通信卫星,属于第二代 Starlink 卫星(Gen2)批次。该卫星于2023年发射,旨在为全球提供高速、低延迟的互联网服务。相比第一代卫星,STARLINK-2102 具备更高的数据传输能力和更先进的激光通信技术,有助于提升网络覆盖与稳定性。其运行轨道较低,有助于减少信号延迟,提高用户体验。该卫星是 SpaceX 构建全球宽带网络计划的重要组成部分。

基本信息
目录编号:
47382
目录名称:
STARLINK-2102
国际标识:
2021-005AK
轨道中心:
EARTH
卫星名称:
星链-2102
卫星全名:
星链-2102 (STARLINK-2102 )
卫星状态:
在轨 (已飞行1791 天)
发射日期:
2021-01-20 UTC
国别 :
美国 (US)
星等 :
--
轨道信息
数据来源 国际轨道数据 AOE轨道数据
星历时间 2025-12-16T04:46:59+0800
19小时前
查看轨道信息
2025-12-10T04:00:00+0800
6天前
查看轨道信息
半长轴 6925.341km 6925.31km
偏心率 0.0001255 0.0001479
轨道倾角 53.056° 53.053°
近地点辐角 95.904° 63.377°
升交点赤经 47.919° 74.998°
平近点角 264.209° 323.599°
近地点 546.336km 546.15km
远地点 548.076km 548.2km
周期 95.592分钟 95.591分钟
每日圈数 15.064026 15.064129
详细信息
固有亮度:
5
最大亮度:
2.5
卫星平台:
Starlink V1.0
覆盖范围:
全球
运营商:
太空探索技术公司
运营商所在国:
美国
制造商(研发单位):
太空探索技术公司
制造商所在国:
美国
使用方式:
暂无
卫星简介
星链(Starlink)计划是由太空探索技术公司(SpaceX)提出的一个巨型低轨卫星互联网星座项目,计划在2019年至2024年间在太空搭建由约1.2万颗卫星组成的“星链”网络,其中1584颗将部署在地球上空550千米处的近地轨道,并从2020年开始工作。该卫星仍在工作。
2D轨道图
3D轨道图
轨道高度分析图
轨道倾角分析图
轨道综合分析图
查看轨道综合分析图